Вернуться в каталог

KUIPER-00156

АктивенСвязьLEO
NORAD 65775·PAYLOAD·🇺🇸 United States

Запущен Sep 25, 2025 с Cape Canaveral Space Force Station

Loading…

Ближайшие Пролёты (ближайшие 24 часа)

TLE

СвежийSource: CelesTrak SupGP

Эпоха: Sep 14, 2026, 13:01 UTC

1 65775C 25217P   26257.54246528  .00005857  00000+0  76693-3 0  2570
2 65775  51.9011 270.5677 0000541  71.0919 252.3589 14.79913487    18

Отслеживайте KUIPER-00156 в реальном времени с AllMySat

Download on the App Store